Location: Ravensburg
(48.5621°N, 13.4088°E)
Time: 00:05:11
(UTC+02:00)

Envisat - Visible Passes

Search period start: 23 April 2018 00:00
Search period end: 03 May 2018 00:00
Orbit: 764 x 766 km, 98.2° (Epoch: 22 April)

Date Brightness Start Highest point End Pass type
(mag) Time Alt. Az. Time Alt. Az. Time Alt. Az.
23 Apr 5.4 21:34:08 10° SW 21:38:02 22° W 21:41:56 10° NW visible
24 Apr 4.2 20:56:10 10° S 21:01:00 44° W 21:05:52 10° NNW visible
25 Apr 5.8 22:01:36 10° WSW 22:03:56 13° W 22:06:18 10° WNW visible
26 Apr 5.1 21:22:30 10° SSW 21:26:46 27° W 21:31:03 10° NW visible
27 Apr 3.8 20:44:50 10° S 20:49:48 54° W 20:54:49 10° NNW visible
28 Apr 5.6 21:49:30 10° SW 21:52:38 16° W 21:55:48 10° NW visible
29 Apr 4.7 21:10:59 10° SSW 21:15:32 33° W 21:20:07 10° NNW visible
01 May 5.5 21:37:39 10° SW 21:41:21 20° W 21:45:05 10° NW visible
02 May 4.4 20:59:33 10° SSW 21:04:19 40° W 21:09:07 10° NNW visible
